Showing default

TRANSAT, 10457

Orbit data source: Space-Track

TRANSAT, 10457 is a payload satellite owned by USN NAVAIR (US) in LEO that was launched on Fri, 28 Oct 1977 UTC via an SCOUT D-1 launch vehicle from the Air Force Western Test Range (AFWTR). Payload-class satellites include a variety of spacecraft equipped with specific instruments for various scientific and technological missions. These include communications satellites like Starlink; space stations such as the ISS; scientific satellites like the Hubble; Earth observation satellites from companies like Planet Labs, Umbra, and HawkEye 360; GPS; miniature CubeSats for education and research; and military/defense satellites.

Loading next visibility...
Identifier
10457, 1977-106A
Orbit
LEO
Country
Flag of USUS
Related business
Manufacturer
APL
Mission
Spacecraft
Bus & Motor
TRANSIT 5, Unknown motor
Mass
92 kg wet, 92 kg dry
Launch date (UTC)
1977-10-28 (49 years ago)
Launch vehicle
SCOUT D-1
Launch site
Air Force Western Test Range (AFWTR)
Object type
Payload
Rocket body
Debris
Shape & HBR
Unknown
Radar Cross Section
Large (>1 m²)

Expand to show TLE details & history
Last TLE update: 2 days ago

TLE from 2 days ago
0 TRANSAT
1 10457U 77106A   26171.47535160  .00000064  00000-0  85660-4 0  9995
2 10457  89.6484  71.8114 0026025  10.8020 163.1481 13.48972023393015
Epoch: 2026-06-20T11:24Z
TLE epoch observation values (Epoch: 2026-06-20T11:24:30.378Z)
Latitude
5.88388°
Longitude
171.95933°
Altitude
1,096.999 km
Speed
7.295 km/s
True Right ascension
16h 47m 06s
True Declination
5° 51' 02"
Sunlit
Object was in full shadow at epoch
Visualization orbit readout
Latitude
Unknown
Longitude
Unknown
Altitude
Unknown
Speed
Unknown
Apparent Right ascension
Unknown
Apparent Declination
Unknown
Sunlit
N/A
Visualization observer readout
Local Sidereal Time
00:29:14
Azimuth
Unknown
Elevation
Unknown
Doppler factor
Unknown
Orbital elements
Apogee altitude
1,092.486 km
Perigee altitude
1,053.703 km
Semi-major axis
7,451.232 km
Eccentricity
0.0026
Inclination
89.6484°
RAAN
71.8114°
Arg. of periapsis
10.802°
True anomaly
163.23429°
Mean anomaly
163.1481°
Eccentric anomaly
163.19122°
Mean motion
3.37444 °/min
Orbital period
106.68 mins
BSTAR
0.00008566
Loading maneuver chart data...
Computing Atmospheric mass density...
Loading historical data...
Loading historical data...
Loading historical data...
Loading historical data...
Loading historical data...
Loading historical data...
Loading historical data...
Other satellites on launch #106 in the year 1977 (1977-10-28 UTC)

Documentation

Showing up to 5 results
|